User: anonymous   Login
Location: Caltech
(34.1382°N, 118.1253°W)
Time: 04:47:28
(UTC-07:00)
Language:

JAS-2 - Orbit

View from above orbital plane
View from above orbital plane
View from above satellite
View from above satellite

Ground track
Ground track

The orbit data is extracted from the following two-line orbital elements,

1 24278U 96046B   15146.99967104  .00000027  00000-0  60596-4 0  9999
2 24278 098.5385 118.6610 0351237 125.6409 280.0101 13.53052022927164
Epoch (UTC): 26 May 2015 23:59:31
Eccentricity: 0.0351237
inclination: 98.5385°
perigee height: 800 km
apogee height: 1322 km
right ascension of ascending node: 118.6610°
argument of perigee: 125.6409°
revolutions per day: 13.53052022
mean anomaly at epoch: 280.0101°
orbit number at epoch: 92716

The dashed part of the orbit path shows where the satellite is in the earth's shadow,  

DLR